STARLINK-4364 (53230 NORAD) Tracking and Keplerian Element Data

This shows tracking and keplerian element data for the satellite.

Feedback or suggestion? Click here.




ElementValue
Catalog53230
NameSTARLINK-4364
Epoch Orbit1058
Epoch Day269.19400221
Epoch Year2022
RAAN329.0414
Inclination97.6533
Eccentricity0.0001571
Argument of Perigee106.9946
Mean Anonmoly253.1451
Mean Motion15.0126294
Decay Rate-2.106E-05
L11 53230U 22084AT 22269.19400221 -.00002106 00000+0 -15941-3 0 9992
L22 53230 97.6533 329.0414 0001571 106.9946 253.1451 15.01262940 10585

Live tracking and technical data element details for STARLINK-4364 (NORAD 53230). STARLINK-4364 can be tracked NOW for your location showing map with azimuth and elevation plus other details from your city location.

Track the satellite on the map from your city or location and see movement details for azimuth, elevation, latitude, longitude, range, height, and movement on the map or in text.







IsCatalogInMostPopularTable: catalog: 53230, numindb: 6
Update: records affected: 1



GetName: 53230 STARLINK-4364

Hit Count: updated at: Fri, 30 Sep 2022 02:32:21 GMT